Flag for U.S.A. Weather past 2 weeks in Buffalo, New York, U.S.A.

Now
71 °F

Partly sunny.


Feels Like: 76 °F
Forecast: 54 / 72 °F
Wind: 10 mph from West

Location: Greater Buffalo International Airport

Current Time: Aug 28, 2015 at 2:11:54 PM

Latest Report: Aug 28, 2015 at 12:54 PM


Visibility: 10 mi

Pressure: 30.20 "Hg

Humidity: 59%

Dew point: 56 °F

Location of BuffaloLocation

Historic Weather in Buffalo — Graph

°F

Buffalo temperature yesterday

Maximum temperature yesterday: 68 °F (at 4:54 PM)
Minimum temperature yesterday: 55 °F (at 2:54 AM)
Average temperature yesterday: 62 °F

Past Weeks' High & Low Weather Summary

 TemperatureHumidityPressure
High89 °F (Aug 19, 5:54 PM)94% (Aug 15, 1:58 AM)30.22 "Hg (Aug 15, 1:58 AM)
Low55 °F (Aug 27, 2:54 AM)37% (Aug 22, 3:54 PM)29.77 "Hg (Aug 20, 7:54 AM)
Average70 °F70%30.01 "Hg
* Reported Aug 13 12:54 PM — Aug 28 12:54 PM, Buffalo, Weather by CustomWeather, © 2015

Note: Actual official high and low records may vary slightly from our data, if they occured in-between our weather recording intervals... More about our weather records

Advertising

Buffalo weather history for previous 24 hours

 ConditionsComfort  
Time TempWeatherWind HumidityBarometerVisibility
12:54 PM
Fri, Aug 28
71 °FPartly sunny.10 mph59%30.20 "Hg10 mi
11:54 AM69 °FBroken clouds.7 mph61%30.21 "Hg10 mi
10:54 AM69 °FScattered clouds.3 mph63%30.21 "Hg10 mi
9:54 AM65 °FPassing clouds.6 mph73%30.21 "Hg10 mi
8:54 AM61 °FPassing clouds.5 mph81%30.22 "Hg10 mi
7:54 AM57 °FBroken clouds.No wind90%30.22 "Hg10 mi
6:54 AM56 °FPassing clouds.3 mph90%30.20 "Hg10 mi
5:54 AM56 °FPassing clouds.3 mph87%30.18 "Hg10 mi
4:54 AM55 °FPassing clouds.5 mph90%30.16 "Hg10 mi
3:54 AM55 °FPassing clouds.5 mph90%30.16 "Hg10 mi
2:54 AM55 °FPassing clouds.3 mph90%30.16 "Hg10 mi
1:54 AM56 °FPassing clouds.3 mph90%30.17 "Hg10 mi
12:54 AM57 °FPassing clouds.3 mph83%30.18 "Hg10 mi
11:54 PM
Thu, Aug 27
59 °FPassing clouds.No wind78%30.17 "Hg10 mi
10:54 PM61 °FPassing clouds.3 mph72%30.16 "Hg10 mi
9:54 PM63 °FPassing clouds.No wind68%30.17 "Hg10 mi
8:54 PM63 °FPartly sunny.3 mph68%30.16 "Hg10 mi
7:54 PM64 °FPartly sunny.3 mph65%30.15 "Hg10 mi
6:54 PM65 °FPartly sunny.8 mph63%30.14 "Hg10 mi
5:54 PM67 °FBroken clouds.5 mph59%30.13 "Hg10 mi
4:54 PM68 °FPartly sunny.9 mph57%30.13 "Hg10 mi
3:54 PM65 °FPartly sunny.8 mph63%30.13 "Hg10 mi
2:54 PM65 °FBroken clouds.7 mph63%30.14 "Hg10 mi
Weather by CustomWeather, © 2015

See weather overviewHow to use our weather pages